Hourly Weather Roundup
Issued by NWS Central Illinois

Home | Current Version | Previous Version | Text Only | Print | Product List | Glossary On
Versions: 1 2 3 4 5 6 7 8 9 10 11 12 13 14 15 16 17 18 19 20 21 22 23 24 25 26 27 28 29 30 31 32 33 34 35 36 37 38 39 40 41 42 43 44 45 46 47 48 49 50
000
NZUS43 KILX 032010
HWRILX

AREA WEATHER ROUNDUP
NATIONAL WEATHER SERVICE, LINCOLN IL
300 PM CDT MON AUG 03 2015


CITY           SKY/WX    TMP DP  RH WIND       PRES   REMARKS
BLOOMINGTON    MOSUNNY   83  60  45 NW12G18   29.92S HX  83
CHAMPAIGN      MOSUNNY   85  66  53 W10       29.89S HX  87
DANVILLE       MOSUNNY   83  67  58 W6        29.85R HX  86
DECATUR        MOSUNNY   87  62  43 W14G21    29.90S HX  87
EFFINGHAM      MOSUNNY   90  58  34 W15       29.90S HX  88
FLORA          SUNNY     90  65  43 W13       29.88F HX  91
GALESBURG      SUNNY     81  58  46 NW6       29.93S HX  81
JACKSONVILLE   PTSUNNY   84  66  54 W7        29.92S HX  87
LACON          SUNNY     80  53  39 NW7       29.90S HX  80
LAWRENCEVILLE  SUNNY     92  68  45 NW12G23   29.86F HX  96
LITCHFIELD     SUNNY     85  65  49 W9        29.92S HX  87
$$


CITY           SKY/WX    TMP DP  RH WIND       PRES   REMARKS
LINCOLN        MOSUNNY   86  61  43 W6        29.90R HX  86
MACOMB         SUNNY     81  58  45 NW3       29.96R HX  81
MATTOON        SUNNY     88  61  40 W9G22     29.88S HX  88
MT CARMEL AP   SUNNY     90  68  48 W14       29.87S HX  93
OLNEY-NOBLE AP SUNNY     88  68  51 W13       29.88S HX  91
PARIS          MOSUNNY   87  68  54 W13       29.88S HX  90
PEORIA         SUNNY     83  56  39 NW10      29.92R HX  82
PONTIAC        SUNNY     81  61  50 W9        29.90S HX  81
RANTOUL        MOSUNNY   85  67  55 NW13      29.88S HX  88
ROBINSON       SUNNY     89  69  51 W10       29.87S HX  93
SPRINGFIELD    MOSUNNY   85  66  53 W10       29.92R HX  87
TAYLORVILLE    MOSUNNY   82  66  57 W10       29.91S HX  85
$$

...REGIONAL REPORTS...


CITY           SKY/WX    TMP DP  RH WIND       PRES   REMARKS
CHICAGO O`HARE MOSUNNY   81  47  30 W13G24    29.85F HX  80
KANKAKEE       SUNNY     83  59  43 NW10G18   29.87S HX  83
MOLINE         SUNNY     83  51  33 W8        29.91S HX  81
MOUNT STERLING NOT AVBL
MOUNT VERNON   SUNNY     91  66  43 NW3       29.90S HX  94
PITTSFIELD     PTSUNNY   84  63  48 NW8       29.95S HX  84
QUINCY         CLOUDY    81  62  52 W9        29.96R HX  82
ROCKFORD       MOSUNNY   82  48  30 NW12      29.89S HX  81
$$


CITY           SKY/WX    TMP DP  RH WIND       PRES   REMARKS
BURLINGTON     SUNNY     81  60  48 NW6       29.94R HX  82
CEDAR RAPIDS   SUNNY     78  58  49 W12       29.93S
DES MOINES     MOSUNNY   83  52  34 CALM      29.95S HX  82
KIRKSVILLE     CLOUDY    74  64  71 SW3       29.97F
OTTUMWA        SUNNY     79  58  48 NW5       29.94S HX  80
ST LOUIS       PTSUNNY   93  67  42 NW10      29.93R HX  96
$$


CITY           SKY/WX    TMP DP  RH WIND       PRES   REMARKS
TERRE HAUTE    MOSUNNY   87  66  49 NW12G18   29.86F HX  89
EVANSVILLE     MOSUNNY   93  67  42 W9G20     29.88S HX  96
INDIANAPOLIS   PTSUNNY   89  65  44 W16       29.84S HX  91
LAFAYETTE      PTSUNNY   83  64  52 NW7       29.85S HX  84
MADISON        MOSUNNY   79  48  33 VRB7G21   29.85F
MILWAUKEE      MOSUNNY   80  45  28 NW21G30   29.83F
$$




USA.gov is the U.S. government's official web portal to all federal, state and local government web resources and services.